[[{"header":{"parameterUnit":"m.s-1","parameterCategory":1,"la1":30.2991,"la2":30.254,"lo1":-89.0895,"lo2":-89.0444,"dy":0.0017,"dx":0.0017,"nx":28,"ny":28,"refTime":"2025-09-12T03:00:00:Z","depth":0,"parameterNumber":2,"parameterNumberName":"U-component_of_WINDS"},"data":[0,0,0,0,0,0,0,0,0,0,0,0,0,0,0,0,0,0,0,0,0,0,0,0,0,0,0,0,0,0,0,0,0,0,0,0,0,0,0,0,0,0,0,0,0,0,0,0,0,0,0,0,0,0,0,0,0,0,-0.1406,-0.1405,0,-0.135,-0.1349,-0.1348,-0.1314,-0.1313,-0.1313,-0.1313,-0.1255,-0.1253,-0.1252,0,0,0,0,0,0,0,0,0,0,0,0,0,-0.1483,-0.1482,-0.1406,-0.1405,-0.1405,-0.135,-0.1349,-0.1348,-0.1314,-0.1313,-0.1313,-0.1313,-0.1255,-0.1253,-0.1252,0,0,0,0,0,0,0,0,0,0,0,0,0,-0.1441,-0.1482,-0.1406,-0.1381,-0.1378,-0.135,-0.1349,-0.1348,-0.1314,-0.1313,-0.1313,-0.1313,-0.1256,-0.1254,-0.1251,-0.1244,0,0,-0.1245,-0.1244,0,0,0,0,0,0,0,0,-0.1443,-0.1438,-0.1385,-0.1383,-0.1379,-0.1338,-0.1355,-0.1313,-0.1314,-0.1338,-0.1313,-0.1313,-0.1283,-0.1278,-0.1268,-0.1241,-0.1239,-0.1245,-0.1244,-0.1243,-0.1242,0,0,0,0,0,0,0,-0.1446,-0.144,-0.1384,-0.1385,-0.1381,-0.1372,-0.1366,-0.1347,-0.1313,-0.1336,-0.1333,-0.1327,-0.1281,-0.127,-0.1267,-0.1238,-0.1245,-0.1243,-0.1242,-0.1241,-0.1201,-0.1201,0,0,0,0,0,0,-0.1453,-0.1443,-0.1385,-0.1382,-0.1411,-0.1371,-0.1364,-0.1352,-0.1313,-0.1306,-0.1327,-0.1326,-0.1274,-0.1269,-0.1264,-0.1252,-0.1243,-0.1241,-0.124,-0.1201,-0.1201,-0.1201,0,0,0,0,0,0,-0.1455,-0.1449,-0.1388,-0.1412,-0.1403,-0.137,-0.1357,-0.1351,-0.134,-0.1306,-0.13,-0.1323,-0.1274,-0.1267,-0.1249,-0.125,-0.124,-0.1238,-0.12,-0.1201,-0.1201,-0.1229,0,0,0,0,0,0,-0.1457,-0.1449,-0.1446,-0.1412,-0.1402,-0.1374,-0.1357,-0.135,-0.1337,-0.1334,-0.13,-0.1294,-0.1273,-0.1252,-0.1247,-0.1247,-0.1236,-0.12,-0.1201,-0.1201,-0.1228,-0.123,-0.1232,0,0,0,0,0,-0.146,-0.1456,-0.1446,-0.144,-0.1398,-0.1374,-0.1368,-0.1344,-0.1337,-0.1333,-0.1312,-0.1295,-0.1251,-0.1251,-0.1244,-0.1244,-0.12,-0.12,-0.1201,-0.1227,-0.123,-0.1232,0,0,0,0,0,0,-0.1492,-0.1451,-0.144,-0.1425,-0.1403,-0.1368,-0.1363,-0.1348,-0.1327,-0.1326,-0.1296,-0.1289,-0.1273,-0.1257,-0.1257,-0.1234,-0.1224,-0.1223,-0.1245,-0.1248,-0.125,-0.1254,-0.1235,0,0,0,0,0,-0.1497,-0.1481,-0.1447,-0.1437,-0.1426,-0.1397,-0.1385,-0.1368,-0.1345,-0.1335,-0.1312,-0.1289,-0.127,-0.1258,-0.1239,-0.1225,-0.1217,-0.1222,-0.1224,-0.1226,-0.1225,-0.1217,-0.1218,-0.1203,-0.1203,-0.1203,0,0,-0.1507,-0.1483,-0.1475,-0.1442,-0.1423,-0.1408,-0.1389,-0.1373,-0.1361,-0.1333,-0.1314,-0.1296,-0.1269,-0.1253,-0.1245,-0.1239,-0.1228,-0.1226,-0.1228,-0.1226,-0.1217,-0.1219,-0.122,-0.1203,-0.1203,-0.1203,0,0,-0.1518,-0.1499,-0.1488,-0.1469,-0.1441,-0.1421,-0.1419,-0.1386,-0.1373,-0.1354,-0.1333,-0.1318,-0.1285,-0.1267,-0.1253,-0.1257,-0.1241,-0.1251,-0.1262,-0.1254,-0.1255,-0.1256,-0.1257,-0.1258,-0.1251,-0.1251,-0.1251,0,-0.1534,-0.151,-0.1484,-0.1469,-0.1455,-0.1429,-0.1418,-0.1401,-0.1368,-0.1359,-0.1353,-0.1311,-0.1291,-0.127,-0.1271,-0.1261,-0.1257,-0.1255,-0.1257,-0.1258,-0.1258,-0.1259,-0.126,-0.1252,-0.1252,-0.1252,-0.1252,0,-0.1531,-0.1514,-0.1509,-0.1478,-0.1463,-0.145,-0.1422,-0.1411,-0.1395,-0.1376,-0.1357,-0.1332,-0.1306,-0.13,-0.1285,-0.1277,-0.1274,-0.1263,-0.1252,-0.1262,-0.1262,-0.1262,-0.1254,-0.1254,-0.1253,-0.1253,0,0,-0.156,-0.1515,-0.1513,-0.1498,-0.1465,-0.1452,-0.1438,-0.1413,-0.1403,-0.1381,-0.1369,-0.1342,-0.1331,-0.1316,-0.1298,-0.1291,-0.1295,-0.128,-0.1279,-0.1284,-0.1284,-0.1293,-0.1294,-0.1284,-0.1284,-0.1284,-0.1287,0,-0.1565,-0.1539,-0.1515,-0.1497,-0.1481,-0.1456,-0.1443,-0.1422,-0.1404,-0.1387,-0.1367,-0.1348,-0.1336,-0.1326,-0.1318,-0.1296,-0.1295,-0.1296,-0.1272,-0.1271,-0.1279,-0.1294,-0.1302,-0.1306,-0.1287,-0.1287,-0.1286,0,-0.1568,-0.1548,-0.1528,-0.1496,-0.1489,-0.1478,-0.1453,-0.1438,-0.1413,-0.14,-0.1383,-0.1364,-0.1347,-0.1338,-0.1315,-0.1316,-0.1305,-0.1293,-0.1292,-0.1289,-0.1279,-0.129,-0.1306,-0.1307,-0.1286,-0.1286,-0.1286,0,-0.1591,-0.1558,-0.1542,-0.153,-0.1493,-0.1486,-0.147,-0.1444,-0.1431,-0.141,-0.1401,-0.1378,-0.1365,-0.1347,-0.1323,-0.1319,-0.1302,-0.1291,-0.129,-0.1291,-0.1288,-0.1288,-0.1302,-0.1281,-0.1281,-0.1281,-0.1281,0,-0.1599,-0.1588,-0.1551,-0.1541,-0.1528,-0.1501,-0.1488,-0.147,-0.1448,-0.1434,-0.1411,-0.1398,-0.1366,-0.135,-0.133,-0.1314,-0.1308,-0.1297,-0.1292,-0.1299,-0.13,-0.1291,-0.129,-0.1281,-0.1281,-0.1281,-0.1281,0,-0.1622,-0.1597,-0.1578,-0.1544,-0.1535,-0.1527,-0.1498,-0.1487,-0.1468,-0.145,-0.1444,-0.1414,-0.1393,-0.1367,-0.1337,-0.1324,-0.131,-0.1302,-0.1318,-0.1315,-0.1316,-0.1317,-0.1324,-0.1324,-0.1304,-0.1304,-0.1304,0,-0.1629,-0.162,-0.1585,-0.1574,-0.1559,-0.1542,-0.1528,-0.1501,-0.1488,-0.1458,-0.1451,-0.1428,-0.1409,-0.1376,-0.1351,-0.1329,-0.132,-0.1325,-0.1317,-0.1324,-0.132,-0.1321,-0.132,-0.1327,-0.1327,-0.1327,-0.1328,0,-0.1644,-0.1632,-0.1613,-0.159,-0.1575,-0.1555,-0.1534,-0.1527,-0.1495,-0.1481,-0.146,-0.1445,-0.1415,-0.1393,-0.1367,-0.135,-0.1334,-0.133,-0.1329,-0.1336,-0.1345,-0.134,-0.1323,-0.133,-0.133,-0.133,-0.1329,-0.1329,-0.1659,-0.1649,-0.1623,-0.1603,-0.1585,-0.1566,-0.1554,-0.1533,-0.1515,-0.1489,-0.1474,-0.1453,-0.1427,-0.1391,-0.1375,-0.1358,-0.1352,-0.135,-0.1349,-0.1349,-0.1351,-0.1348,-0.1353,-0.1353,-0.1353,-0.1353,-0.1353,0,-0.1672,-0.1654,-0.1636,-0.1608,-0.1592,-0.1578,-0.1554,-0.1542,-0.1524,-0.1501,-0.1483,-0.1458,-0.1436,-0.141,-0.1386,-0.1377,-0.1369,-0.1372,-0.1372,-0.1369,-0.1358,-0.1362,-0.1379,-0.1379,-0.1379,-0.1379,-0.1379,-0.1379,-0.1677,-0.166,-0.1645,-0.1619,-0.1601,-0.158,-0.1568,-0.155,-0.1533,-0.1506,-0.1488,-0.1471,-0.1446,-0.1421,-0.14,-0.1393,-0.1385,-0.139,-0.1381,-0.1372,-0.1369,-0.1367,-0.137,-0.1389,-0.1389,-0.1392,-0.1392,-0.1392]},{"header":{"parameterUnit":"m.s-1","parameterCategory":1,"la1":30.2991,"la2":30.254,"lo1":-89.0895,"lo2":-89.0444,"dy":0.0017,"dx":0.0017,"nx":28,"ny":28,"refTime":"2025-09-12T03:00:00:Z","depth":0,"parameterNumber":3,"parameterNumberName":"V-component_of_WINDS"},"data":[0,0,0,0,0,0,0,0,0,0,0,0,0,0,0,0,0,0,0,0,0,0,0,0,0,0,0,0,0,0,0,0,0,0,0,0,0,0,0,0,0,0,0,0,0,0,0,0,0,0,0,0,0,0,0,0,0,0,0.8553,0.8551,0,0.8308,0.8305,0.8302,0.8152,0.8151,0.815,0.815,0.7888,0.7882,0.7876,0,0,0,0,0,0,0,0,0,0,0,0,0,0.8883,0.8878,0.8554,0.8551,0.8547,0.8308,0.8305,0.8301,0.8152,0.8151,0.815,0.8149,0.789,0.7883,0.7875,0,0,0,0,0,0,0,0,0,0,0,0,0,0.8699,0.8876,0.8554,0.8444,0.8432,0.8309,0.8305,0.83,0.8152,0.8151,0.815,0.8149,0.7893,0.7884,0.7874,0.7838,0,0,0.7846,0.7841,0,0,0,0,0,0,0,0,0.8709,0.8687,0.8464,0.8452,0.8438,0.826,0.8325,0.8145,0.8152,0.8258,0.815,0.8148,0.8012,0.7993,0.7949,0.7826,0.7815,0.7845,0.7839,0.7835,0.7832,0,0,0,0,0,0,0,0.8722,0.8696,0.8456,0.846,0.8445,0.8404,0.8376,0.829,0.8144,0.8249,0.8237,0.8211,0.8005,0.7958,0.7941,0.7811,0.7845,0.7837,0.7831,0.7827,0.7643,0.7643,0,0,0,0,0,0,0.8754,0.8708,0.8464,0.8449,0.8574,0.8399,0.8368,0.8318,0.8145,0.8117,0.8212,0.8205,0.7975,0.7953,0.7932,0.7876,0.7835,0.7826,0.7821,0.7642,0.7643,0.7644,0,0,0,0,0,0,0.8762,0.8734,0.8474,0.8575,0.8539,0.8394,0.8339,0.8313,0.8267,0.8117,0.8089,0.8192,0.7973,0.7945,0.7863,0.7865,0.7822,0.7813,0.7641,0.7642,0.7643,0.7766,0,0,0,0,0,0,0.8772,0.8737,0.8725,0.8576,0.8534,0.8412,0.8339,0.8309,0.8252,0.824,0.8091,0.8065,0.797,0.7878,0.7853,0.7851,0.7806,0.764,0.7642,0.7643,0.7761,0.7772,0.778,0,0,0,0,0,0.8784,0.8767,0.8725,0.8696,0.8516,0.8413,0.8388,0.8283,0.8253,0.8237,0.8141,0.807,0.7869,0.787,0.7842,0.7837,0.7639,0.7641,0.7643,0.7757,0.777,0.778,0,0,0,0,0,0,0.8917,0.8746,0.8697,0.8632,0.8539,0.8388,0.8365,0.8299,0.8209,0.8202,0.8071,0.8038,0.7968,0.7894,0.7899,0.7791,0.7746,0.7742,0.7843,0.7853,0.7862,0.7881,0.7798,0,0,0,0,0,0.8939,0.8873,0.8726,0.8683,0.8639,0.8511,0.8462,0.8388,0.8284,0.8243,0.814,0.804,0.7953,0.7899,0.7812,0.775,0.7713,0.7732,0.7742,0.7751,0.7748,0.7707,0.7713,0.7649,0.7649,0.7649,0,0,0.8983,0.8882,0.8848,0.8707,0.8626,0.8557,0.8478,0.8409,0.8355,0.8231,0.8148,0.8069,0.7947,0.7875,0.7838,0.7811,0.7758,0.7753,0.7761,0.7753,0.771,0.7716,0.7721,0.765,0.765,0.765,0,0,0.9029,0.8947,0.8901,0.8822,0.8701,0.8616,0.8605,0.8464,0.8408,0.8323,0.8228,0.816,0.8016,0.7932,0.7871,0.7885,0.7815,0.786,0.7908,0.787,0.7875,0.7879,0.7881,0.7884,0.7858,0.7858,0.7858,0,0.9098,0.8994,0.8885,0.8822,0.8761,0.865,0.86,0.8527,0.8383,0.8342,0.8315,0.813,0.804,0.7946,0.795,0.7905,0.7885,0.7875,0.7884,0.7886,0.7888,0.7889,0.789,0.7864,0.7864,0.7863,0.7862,0,0.9084,0.9013,0.899,0.8857,0.8794,0.8738,0.8617,0.8566,0.8498,0.8415,0.8327,0.8216,0.8104,0.8076,0.8008,0.7971,0.7958,0.7909,0.786,0.7902,0.7901,0.79,0.7873,0.7871,0.7869,0.7868,0,0,0.9205,0.9013,0.9006,0.8944,0.8802,0.8743,0.868,0.8573,0.8531,0.8435,0.8376,0.8257,0.821,0.8141,0.8062,0.803,0.8044,0.7983,0.7979,0.7997,0.7994,0.803,0.8033,0.7998,0.7998,0.7997,0.8003,0,0.9228,0.9114,0.9014,0.8935,0.8866,0.8759,0.8703,0.8609,0.8529,0.8456,0.8366,0.8282,0.8229,0.8186,0.8149,0.8051,0.8042,0.8049,0.7939,0.7936,0.7972,0.8032,0.807,0.8081,0.8002,0.8002,0.8002,0,0.9239,0.9151,0.9066,0.893,0.8897,0.8851,0.8743,0.8676,0.8565,0.8509,0.8432,0.835,0.8275,0.8236,0.8129,0.8137,0.8085,0.803,0.8028,0.8012,0.7971,0.8015,0.8082,0.8083,0.8,0.8,0.8,0,0.9334,0.9193,0.9124,0.9074,0.8914,0.8883,0.8814,0.8702,0.8644,0.8549,0.8509,0.8406,0.8349,0.827,0.8161,0.8143,0.8064,0.8016,0.8012,0.8015,0.7999,0.8001,0.8056,0.797,0.797,0.797,0.797,0,0.9369,0.9321,0.9164,0.9122,0.9063,0.8947,0.8891,0.8813,0.8714,0.8651,0.8551,0.8493,0.8354,0.8278,0.8192,0.8115,0.8091,0.804,0.8018,0.8048,0.8055,0.8011,0.8007,0.797,0.797,0.797,0.797,0,0.9464,0.9358,0.9275,0.9131,0.9094,0.9057,0.8932,0.8884,0.8799,0.8721,0.8695,0.856,0.8466,0.8351,0.8218,0.816,0.8091,0.8058,0.813,0.8116,0.8118,0.8119,0.8146,0.8142,0.8062,0.8063,0.8063,0,0.9493,0.9453,0.9306,0.9259,0.9194,0.9119,0.9059,0.8943,0.8884,0.8754,0.8721,0.8621,0.8534,0.8387,0.8275,0.8173,0.8135,0.8152,0.8118,0.815,0.8132,0.8135,0.8129,0.816,0.8161,0.8162,0.8163,0,0.9554,0.9503,0.9424,0.9325,0.9258,0.9173,0.9084,0.905,0.8915,0.8853,0.8758,0.8691,0.8557,0.8456,0.834,0.8264,0.819,0.8175,0.8168,0.8198,0.824,0.8215,0.8151,0.8174,0.8173,0.8172,0.8172,0.8171,0.9614,0.9574,0.9465,0.9378,0.93,0.9219,0.9167,0.9076,0.8996,0.888,0.8815,0.8721,0.8607,0.8444,0.8371,0.8293,0.8266,0.8257,0.8254,0.8253,0.8262,0.8256,0.8271,0.8271,0.8271,0.827,0.827,0,0.9669,0.9593,0.9515,0.9395,0.9327,0.9267,0.9165,0.911,0.903,0.8933,0.885,0.8738,0.864,0.8521,0.8414,0.8374,0.8337,0.835,0.835,0.8333,0.8293,0.8309,0.8381,0.8381,0.8381,0.8381,0.8381,0.8381,0.9689,0.9617,0.9553,0.944,0.9363,0.9273,0.9219,0.9143,0.9064,0.8946,0.8865,0.879,0.8682,0.8566,0.8472,0.8439,0.8403,0.8426,0.8383,0.8346,0.8337,0.8327,0.8341,0.842,0.842,0.8429,0.8429,0.8429]}]]